Location: Conington
(52.2667°N, 0.0500°W)
Time: 09:38:17
(UTC+00:00)

Daily predictions for brighter satellites

Satellite Brightness Start Highest point End
(mag) Time Altitude Azimuth Time Altitude Azimuth Time Altitude Azimuth
STARLINK-1233 3.7 20:50:21 10° W 20:54:30 84° N 20:58:41 10° E
STARLINK-1112 3.9 20:50:54 10° WNW 20:54:59 57° SSW 20:59:03 10° SE
STARLINK-1143 3.7 20:52:46 10° SW 20:56:50 58° SSE 21:00:56 10° ENE
Aureole 2 4.1 20:53:59 10° NNW 20:57:13 85° ENE 21:00:11 10° SSE
STARLINK-1209 3.1 20:55:08 10° W 20:58:26 81° N 21:01:45 10° E
STARLINK-1204 3.7 20:55:20 10° W 20:59:30 83° N 21:03:39 10° E
STARLINK-1128 3.9 20:55:53 10° WNW 20:59:57 55° SSW 21:04:00 10° SE
STARLINK-1241 3.6 20:57:45 10° WSW 21:01:51 62° SSE 21:05:57 10° ENE
Cosmos 1300 Rocket 4.5 20:58:31 10° NNW 21:02:50 49° W 21:07:07 10° SSW
deb Kosmos-1763 4.1 20:59:16 10° NNW 21:02:53 77° WSW 21:06:28 10° SSE
STARLINK-1238 3.7 21:00:21 10° W 21:04:30 82° N 21:08:40 10° E
STARLINK-1113 4.0 21:00:53 10° WNW 21:04:55 52° SSW 21:08:57 10° SE
Aureole 2 Rocket 2.3 21:02:54 10° S 21:05:51 45° ESE 21:08:42 10° NE
Cosmos 1733 4.3 21:02:27 10° N 21:05:54 31° ENE 21:09:19 10° SE
STARLINK-1239 3.6 21:02:42 10° WSW 21:06:48 64° SSE 21:10:55 10° ENE
STARLINK-1201 3.8 21:05:19 10° W 21:09:29 81° N 21:13:39 10° E
STARLINK-1119 4.0 21:05:53 10° WNW 21:09:54 49° SSW 21:13:54 10° SE
Cosmos 1437 Rocket 2.7 21:07:12 10° S 21:10:59 87° E 21:14:51 10° NNE
STARLINK-1240 3.6 21:07:38 10° WSW 21:11:46 67° SSE 21:15:53 10° ENE
Cosmos 1378 3.9 21:10:12 10° SSE 21:13:37 36° E 21:17:03 10° NNE
ISS -1.1 21:13:38 10° SW 21:14:13 10° SW 21:14:48 10° SSW
STARLINK-1206 3.8 21:10:19 10° W 21:14:29 80° N 21:18:39 10° E
STARLINK-1114 4.1 21:10:51 10° WNW 21:14:50 46° SSW 21:18:49 10° SE
Meteor 1-15 Rocket 4.5 21:09:05 10° NNW 21:15:03 83° W 21:20:58 10° S
STARLINK-1203 3.6 21:12:26 10° WSW 21:16:37 71° SSE 21:20:49 10° ENE
STARLINK-1216 3.6 21:12:35 10° WSW 21:16:43 70° SSE 21:20:51 10° ENE
Lacrosse 5 3.8 21:13:29 10° W 21:17:01 19° SW 21:20:33 10° S
USA 215 3.8 21:11:03 10° E 21:17:29 63° N 21:23:56 10° WNW
Cosmos 304 Rocket 3.8 21:12:49 10° SSW 21:17:34 68° ESE 21:22:21 10° NNE
NOSS 8 (E) 4.0 21:15:33 10° SW 21:18:40 74° SE 21:21:46 10° NE
STARLINK-1205 3.8 21:15:18 10° W 21:19:27 80° N 21:23:37 10° E
STARLINK-1130 (DARKSAT) 4.2 21:15:51 10° WNW 21:19:48 44° SSW 21:23:37 11° SE
CENTAUR R/B 3.4 21:13:57 10° NW 21:21:39 69° NE 21:30:18 10° ESE
STARLINK-1237 3.6 21:17:33 10° WSW 21:21:42 73° SSE 21:25:51 10° ENE
NOSS 2-2 (D) 3.8 21:18:43 10° S 21:22:00 35° ESE 21:25:41 10° ENE
Cosmos 1092 Rocket 4.4 21:16:13 10° SSE 21:22:01 46° E 21:27:52 10° NNE
CZ-2C R/B 4.2 21:17:06 10° N 21:22:19 41° WNW 21:27:33 10° SW
STARLINK-1218 3.8 21:20:18 10° W 21:24:27 79° N 21:28:37 10° E
STARLINK-1084 4.3 21:20:51 10° W 21:24:46 42° SSW 21:28:24 12° SE
ATLAS 3B R/B 3.6 21:18:26 10° NW 21:24:52 45° NNE 21:31:29 10° E
Cosmos 1674 Rocket 3.7 21:21:49 10° SSW 21:26:11 78° W 21:30:39 10° N
SL-27 R/B 3.2 21:22:50 10° NNW 21:26:19 44° ENE 21:29:28 12° SE
STARLINK-1202 3.5 21:22:32 10° WSW 21:26:40 76° SSE 21:30:50 10° ENE
NOSS 3-2 (C) 4.2 21:19:43 10° NW 21:26:59 76° NE 21:35:17 10° SE
Cosmos 1766 3.4 21:25:02 10° N 21:29:02 69° ENE 21:32:47 11° SSE
Cosmos 1378 Rocket 3.6 21:24:39 10° S 21:29:04 88° ESE 21:33:28 10° NNE
STARLINK-1254 3.8 21:25:16 10° W 21:29:26 79° N 21:33:36 10° E
STARLINK-1098 4.3 21:25:50 10° W 21:29:43 39° SSW 21:33:11 12° SE
Cosmos 1867 4.3 21:26:46 10° NW 21:32:05 48° NE 21:37:22 10° ESE
STARLINK-1231 3.8 21:30:15 10° W 21:34:24 79° N 21:38:34 10° E
STARLINK-1123 4.4 21:30:49 10° W 21:34:39 37° SSW 21:37:56 13° SSE
STARLINK-1246 3.5 21:32:29 10° WSW 21:36:38 81° SSE 21:40:48 10° ENE
IGS 5A 4.5 21:32:58 10° S 21:36:55 42° W 21:40:54 10° NNW
Cosmos 1943 Rocket 2.6 21:33:13 10° S 21:38:25 43° ESE 21:43:42 10° NE
Cosmos 2297 3.7 21:32:46 10° SSW 21:38:28 83° ESE 21:44:14 10° NNE
NOSS 2-2 (E) 3.2 21:35:36 10° SSW 21:39:10 60° SE 21:43:22 10° NE
STARLINK-1232 3.8 21:35:15 10° W 21:39:24 79° N 21:43:34 10° E
Cosmos 2082 Rocket 4.0 21:36:42 10° NW 21:41:14 25° WSW 21:45:45 10° SSW
STARLINK-1224 3.6 21:37:27 10° WSW 21:41:37 84° SSE 21:45:46 10° ENE
SeaSat 1 4.2 21:39:40 10° ENE 21:42:25 15° ESE 21:44:35 12° SE
SAR-Lupe-2 4.3 21:40:14 10° N 21:43:46 54° WNW 21:47:17 10° SSW
STARLINK-1208 3.7 21:40:13 10° W 21:44:22 79° N 21:48:32 10° E
Cosmos 1461 3.2 21:42:09 10° SW 21:46:22 77° NW 21:50:50 10° NE
STARLINK-1225 3.6 21:42:26 10° WSW 21:46:36 86° SSE 21:50:46 10° ENE
STARLINK-1212 2.8 21:44:30 10° WNW 21:47:38 84° SSW 21:50:45 10° ESE
STARLINK-1105 2.8 21:44:58 10° WNW 21:48:05 84° SSW 21:51:12 10° ESE
Cosmos 1975 Rocket 3.3 21:44:36 12° S 21:48:36 53° E 21:52:54 10° NNE
STARLINK-1247 2.8 21:45:51 10° WNW 21:48:59 83° SSW 21:52:06 10° ESE
STARLINK-1271 3.7 21:45:14 10° W 21:49:23 80° N 21:53:33 10° E
STARLINK-1227 2.8 21:46:21 10° WNW 21:49:28 83° S 21:52:32 10° ESE
BREEZE-M DEB (TANK) 4.1 21:34:27 10° SW 21:50:16 53° SSE 21:54:28 10° E
STARLINK-1226 2.8 21:47:12 10° WNW 21:50:20 82° SSW 21:53:24 10° ESE
BREEZE-M DEB (TANK) 3.0 21:46:45 10° W 21:51:09 61° S 21:54:40 10° E
STARLINK-1215 2.8 21:48:06 10° WNW 21:51:14 82° SSW 21:54:16 11° ESE
STARLINK-1230 3.6 21:47:24 10° WSW 21:51:34 88° SSE 21:55:44 10° ENE
STARLINK-1217 2.8 21:49:55 10° WNW 21:53:03 81° SSW 21:56:00 11° ESE
STARLINK-1229 2.8 21:50:49 10° WNW 21:53:57 80° SSW 21:56:54 11° ESE
STARLINK-1154 3.7 21:50:13 10° W 21:54:22 80° N 21:58:32 10° E
Cosmos 2369 Rocket 2.6 21:49:19 10° S 21:54:37 42° ESE 21:59:55 10° NE
STARLINK-1270 2.8 21:51:43 10° WNW 21:54:51 79° SSW 21:57:45 12° ESE
STARLINK-1243 3.6 21:52:24 10° WSW 21:56:34 90° NE 22:00:44 10° E
STARLINK-1189 2.8 21:53:30 10° WNW 21:56:38 78° SSW 21:59:29 12° ESE
Aureole 3 Rocket 4.5 21:50:56 10° N 21:56:49 63° ENE 22:03:54 14° SSE
STARLINK-1188 2.8 21:54:25 10° WNW 21:57:33 78° SSW 22:00:22 12° ESE
STARLINK-1187 2.8 21:55:32 10° WNW 21:58:37 73° SSW 22:01:13 14° ESE
SPOT 5 3.5 21:53:31 10° S 21:58:40 59° W 22:04:00 10° NNW
STARLINK-1197 3.7 21:55:10 10° W 21:59:20 81° N 22:03:30 10° E
STARLINK-1191 2.7 21:56:52 10° WNW 21:59:59 76° SSW 22:02:39 13° ESE
ATLAS CENTAUR R/B 3.3 21:59:35 13° SE 22:00:20 13° ESE 22:02:22 10° E
STARLINK-1221 2.7 21:57:49 10° WNW 22:00:56 75° SSW 22:03:35 13° ESE
STARLINK-1236 3.6 21:57:22 10° W 22:01:32 88° N 22:05:42 10° E
STARLINK-1222 2.7 21:58:40 10° WNW 22:01:46 75° SSW 22:04:23 14° ESE
STARLINK-1214 2.8 21:59:34 10° WNW 22:02:40 74° SSW 22:05:16 14° ESE
Thor Agena Rocket 4.5 21:58:54 10° NNE 22:03:40 33° E 22:07:12 16° SSE
NOSS 2-2 (C) 3.1 22:00:11 10° SW 22:03:46 79° SE 22:07:59 10° NE
STARLINK-1198 3.7 22:00:09 10° W 22:04:19 82° N 22:08:29 10° E
EXPRESS MD2 4.0 22:00:52 10° WSW 22:04:30 56° SSE 22:11:48 10° E
ERS-1 Rocket 3.8 21:59:53 10° S 22:04:42 45° W 22:09:33 10° NNW
Cosmos 1025 Rocket 4.1 22:02:58 16° SE 22:05:35 29° E 22:09:19 10° NNE
Okean 2 3.4 22:02:00 11° S 22:05:56 85° E 22:10:07 10° NNE
Cosmos 2026 Rocket 4.1 22:00:23 11° S 22:06:24 71° E 22:12:45 10° NNE
Cosmos 1553 Rocket 4.2 22:00:25 10° N 22:06:41 62° ENE 22:11:43 16° SSE
BREEZE M DEB (TANK) 2.6 22:03:16 10° WSW 22:06:51 37° S 22:08:33 14° ESE
ATLAS 2AS CENTAUR R/B 3.6 22:00:45 10° S 22:07:52 37° ESE 22:14:58 10° NE
Cosmos 1953 3.6 22:04:25 10° N 22:07:58 30° ENE 22:10:41 15° SE
NOSS 3-2 (A) 4.3 22:01:02 10° NW 22:08:17 59° SW 22:15:11 15° SSE
STARLINK-1228 3.2 22:05:01 10° WNW 22:08:28 63° SSW 22:11:08 16° ESE
Cosmos 1805 4.3 22:05:06 10° NNW 22:08:48 39° W 22:12:24 10° SSW
Cosmos 1470 2.9 22:05:22 10° N 22:09:13 60° ENE 22:11:51 19° SSE
STARLINK-1199 3.7 22:05:09 10° W 22:09:19 83° N 22:13:29 10° E
STARLINK-1235 3.0 22:07:44 10° WNW 22:10:57 61° SSW 22:13:12 18° SE
STARLINK-1269 3.6 22:07:20 10° W 22:11:31 85° N 22:15:41 10° E
Cosmos 968 Rocket 3.5 22:08:24 10° NNW 22:13:37 85° ENE 22:17:31 18° SSE
STARLINK-1210 3.6 22:10:08 10° W 22:14:17 84° N 22:18:27 10° E
Cosmos 1455 Rocket 3.1 22:11:45 10° NNW 22:16:07 75° W 22:19:25 17° S
STARLINK-1200 3.7 22:12:18 10° W 22:16:29 84° N 22:20:38 10° E
STARLINK-1219 3.6 22:15:06 10° W 22:19:16 86° N 22:23:25 10° E
USA 238 DEB 4.3 22:13:14 10° NW 22:20:07 50° WSW 22:25:51 16° SSE
USA 238 4.3 22:13:20 10° NW 22:20:13 51° WSW 22:25:58 16° SSE
SL-4 R/B 3.0 22:20:18 12° E 22:21:07 13° ENE 22:22:19 10° NNE
STARLINK-1192 3.7 22:17:18 10° W 22:21:29 82° N 22:25:38 10° E
ATLAS 5 CENTAUR R/B 3.0 22:21:46 20° SE 22:21:47 20° SE 22:23:51 10° E
Cosmos 1758 3.4 22:18:39 10° N 22:22:44 74° ENE 22:25:25 21° SSE
STARLINK-1211 3.6 22:20:06 10° W 22:24:16 88° NNE 22:28:26 10° E
SL-4 R/B 3.0 22:21:34 10° SSW 22:25:51 33° SE 22:30:11 10° E
STARLINK-1244 3.7 22:22:17 10° W 22:26:27 81° N 22:30:37 10° E
Terra 2.7 22:23:15 13° SSW 22:27:18 42° W 22:31:52 10° NNW
Cosmos 1842 3.4 22:24:08 14° SSW 22:27:27 74° WNW 22:31:22 10° N
ERBS 4.0 22:24:48 10° WNW 22:27:54 35° N 22:31:01 10° ENE
STARLINK-1234 3.3 22:25:31 10° W 22:28:41 47° SSW 22:30:16 24° SE
Meteor 2-13 Rocket 4.5 22:23:30 12° S 22:29:12 87° E 22:35:25 10° NNE
STARLINK-1245 3.6 22:25:04 10° W 22:29:15 89° NE 22:33:24 10° ESE
STARLINK-1138 3.7 22:27:16 10° W 22:31:27 81° N 22:35:36 10° E
Cosmos 1503 Rocket 4.0 22:28:25 10° NNW 22:33:46 90° WSW 22:37:35 20° SSE
STARLINK-1233 3.6 22:30:02 10° WNW 22:34:12 89° SSW 22:38:21 10° ESE
STARLINK-1209 3.5 22:31:42 10° W 22:34:50 43° SSW 22:36:13 26° SSE
STARLINK-1143 3.7 22:32:14 10° W 22:36:24 80° N 22:40:34 10° E
STARLINK-1204 3.5 22:35:01 10° WNW 22:39:11 87° SSW 22:43:20 10° ESE
Meteor 2-8 Rocket 4.5 22:33:24 10° N 22:39:35 79° ENE 22:44:07 19° SSE
SJ 16-02 4.0 22:39:10 10° NNE 22:41:09 13° NE 22:43:07 10° ENE
STARLINK-1241 3.7 22:37:15 10° W 22:41:25 80° N 22:45:35 10° E
STARLINK-1238 3.5 22:40:02 10° WNW 22:44:11 84° SSW 22:48:20 10° ESE
Cosmos 2263 4.2 22:39:18 12° SSW 22:44:24 69° ESE 22:50:00 10° NE
STARLINK-1239 3.7 22:42:14 10° W 22:46:24 79° N 22:50:34 10° E
Cosmos 1536 Rocket 3.6 22:45:44 22° S 22:48:24 65° E 22:52:45 10° NNE
STARLINK-1201 3.5 22:45:00 10° WNW 22:49:09 82° SSW 22:53:18 10° ESE
Cosmos 1674 4.2 22:48:20 18° SE 22:49:54 23° E 22:52:57 10° NE
STARLINK-1240 3.7 22:47:12 10° W 22:51:22 79° N 22:55:32 10° E
Cosmos 1271 Rocket 2.7 22:49:29 21° SSW 22:52:01 88° WNW 22:56:00 10° NNE
Cosmos 1242 Rocket 3.0 22:49:25 17° SSW 22:52:08 60° WNW 22:55:49 10° N
Cosmos 1544 Rocket 4.3 22:48:41 10° NNW 22:52:50 45° W 22:55:47 18° SSW
Cosmos 1354 Rocket 4.1 22:47:46 10° NNW 22:53:05 73° WSW 22:56:35 22° SSE
STARLINK-1206 3.5 22:50:00 10° WNW 22:54:09 79° SSW 22:58:18 10° ESE
STARLINK-60 3.3 22:52:21 18° SW 22:54:23 41° SSE 22:57:26 10° E
Meteor 1-21 4.4 22:50:09 13° SSW 22:55:15 71° WNW 23:00:52 10° N
STARLINK-1216 3.7 22:52:11 10° W 22:56:21 79° N 23:00:30 10° E
STARLINK-1203 3.7 22:52:15 10° W 22:56:29 79° N 23:00:42 10° E
COSMOS 2455 3.3 22:52:50 20° S 22:56:35 42° ESE 23:02:13 10° NE
Spot 4 3.9 22:53:29 22° S 22:56:40 78° WSW 23:01:33 10° NNW
Cosmos 1833 4.5 22:51:59 10° NW 22:57:31 57° WSW 23:01:10 21° S
STARLINK-1205 3.5 22:54:58 10° WNW 22:59:06 77° SSW 23:03:07 11° ESE
Cosmos 2297 Rocket 3.7 22:55:06 10° NNW 23:00:09 32° NE 23:05:10 10° ESE
USA 215 3.2 22:53:50 10° ESE 23:00:25 84° SSW 23:07:01 10° WNW
STARLINK-1237 3.7 22:57:10 10° W 23:01:20 79° N 23:05:30 10° E
Cosmos 1707 2.7 22:59:44 23° SSW 23:02:06 83° WNW 23:06:01 10° N
Lacrosse 4 Rocket 4.2 23:00:34 10° NNW 23:03:34 18° NNE 23:06:32 10° ENE
STARLINK-1218 3.5 22:59:57 10° WNW 23:04:06 74° SSW 23:07:55 12° ESE
Helios 1A 3.9 23:01:35 18° SE 23:04:19 40° ENE 23:08:16 10° N
Cosmos 1726 2.1 23:01:45 10° NNW 23:05:29 81° W 23:07:20 28° S
STARLINK-1202 3.7 23:02:10 10° W 23:06:20 80° N 23:10:29 10° E
Cosmos 1174 4.1 23:06:36 30° SSE 23:07:29 37° ESE 23:11:02 10° NE
Timation 2 Rocket 4.2 23:01:26 10° NNW 23:07:50 69° NE 23:12:55 15° SE
Cosmos 2058 Rocket 4.4 23:04:59 10° N 23:08:57 31° ENE 23:11:58 15° SE
STARLINK-1254 3.5 23:04:55 10° WNW 23:09:04 71° SSW 23:12:41 13° ESE
COSMOS 2487 2.4 23:05:36 10° NNW 23:09:04 68° WSW 23:10:32 31° S
ALOS 2 2.6 23:07:47 24° SSE 23:10:23 77° ENE 23:14:48 10° NNW
CENTAUR R/B 3.6 23:04:49 10° NW 23:12:23 47° WSW 23:18:18 20° S
STARLINK-1231 3.5 23:09:54 10° WNW 23:14:02 68° SSW 23:17:27 14° ESE
Meteor 1-16 Rocket 4.1 23:08:48 10° NNW 23:14:22 82° W 23:17:49 23° S
Cosmos 1867 4.1 23:10:32 10° NW 23:15:44 46° WSW 23:18:45 23° S
ATLAS 3B R/B 2.7 23:09:14 10° NW 23:15:59 70° SW 23:21:09 19° SSE
STARLINK-1246 3.7 23:12:09 10° W 23:16:19 81° N 23:20:28 10° E
EO 1 Del DPAF 3.5 23:13:18 10° N 23:17:03 62° WNW 23:19:29 20° SSW
STARLINK-1232 3.5 23:14:54 10° WNW 23:19:01 65° SSW 23:22:15 16° ESE
Cosmos 1606 Rocket 3.7 23:14:52 10° N 23:19:11 65° ENE 23:21:36 25° SSE
FALCON 9 DEB 4.3 23:20:07 25° SE 23:20:07 25° SE 23:22:33 10° E
Cosmos 1992 Rocket 4.1 23:16:13 15° SSW 23:20:34 79° WNW 23:25:49 10° NNE
SeaSat 1 2.4 23:15:41 10° NNE 23:20:40 78° ESE 23:24:20 18° SSW
STARLINK-1224 3.7 23:17:07 10° W 23:21:17 82° N 23:25:27 10° E
Cosmos 1943 Rocket 3.3 23:16:56 10° WSW 23:22:13 43° NW 23:27:35 10° NNE
STARLINK-1212 4.1 23:20:32 10° W 23:22:54 25° SW 23:22:54 25° SW
STARLINK-1105 4.1 23:21:00 10° W 23:23:20 25° SW 23:23:20 25° SW
STARLINK-1208 3.6 23:19:51 10° WNW 23:23:57 63° SSW 23:27:00 17° SE
STARLINK-29 3.4 23:24:02 38° SSE 23:24:18 39° SSE 23:27:20 10° E
STARLINK-1247 4.2 23:21:53 10° W 23:24:14 25° SW 23:24:14 25° SW
STARLINK-1227 4.2 23:22:23 10° W 23:24:40 24° SW 23:24:40 24° SW
STARLINK-1226 4.2 23:23:15 10° W 23:25:31 24° SW 23:25:31 24° SW
STARLINK-1225 3.6 23:22:07 10° W 23:26:17 83° N 23:30:27 10° E
ATLAS CENTAUR R/B 1.5 23:24:39 10° NW 23:26:33 48° NNE 23:29:33 10° ESE
STARLINK-1215 4.2 23:24:09 10° W 23:26:23 24° SW 23:26:23 24° SW
STARLINK-1217 4.3 23:25:59 10° W 23:28:08 23° SW 23:28:08 23° SW
STARLINK-1271 3.6 23:24:52 10° WNW 23:28:57 60° SSW 23:31:49 19° SE
STARLINK-1229 4.3 23:26:54 10° W 23:29:01 23° SW 23:29:01 23° SW
NOSS 3-4 (A) 3.4 23:23:52 10° SW 23:29:50 79° SE 23:36:19 10° NE
NOSS 3-4 (C) 3.4 23:24:01 10° SW 23:29:56 78° SE 23:36:25 10° NE
STARLINK-1270 4.4 23:27:48 10° W 23:29:53 22° SW 23:29:53 22° SW
RESURS DK-1 3.2 23:29:48 27° SSE 23:31:14 35° ESE 23:35:02 10° NE
STARLINK-1230 3.6 23:27:05 10° W 23:31:15 84° N 23:35:25 10° E
STARLINK-1189 4.4 23:29:36 10° W 23:31:36 22° SW 23:31:36 22° SW
Cosmos 2315 Rocket 4.0 23:26:36 10° N 23:32:51 87° WSW 23:36:58 23° S
STARLINK-1188 4.5 23:30:32 10° W 23:32:29 21° SW 23:32:29 21° SW
STARLINK-1154 3.7 23:29:51 10° WNW 23:33:56 57° SSW 23:36:35 20° SE
Cosmos 2084 4.5 23:33:36 26° SSE 23:34:57 31° ESE 23:38:54 10° ENE
Cosmos 1340 Rocket 3.6 23:32:15 10° NNW 23:36:06 42° W 23:38:06 24° SSW
STARLINK-1243 3.6 23:32:05 10° W 23:36:15 85° N 23:40:25 10° E
Cosmos 2227 Rocket 3.2 23:31:51 10° NNW 23:37:19 44° NE 23:42:45 10° ESE
Cosmos 1626 3.4 23:36:00 21° SE 23:37:30 29° E 23:40:45 10° NNE
ATLAS CENTAUR R/B 1.3 23:35:42 20° SW 23:38:40 79° SE 23:42:44 10° NE
Cosmos 2369 Rocket 3.3 23:33:15 10° WSW 23:38:40 44° NW 23:44:05 10° NNE
STARLINK-1197 3.7 23:34:48 10° WNW 23:38:52 54° SSW 23:41:21 22° SE
Okean 1-7 Rocket 4.5 23:37:39 23° SE 23:39:57 39° E 23:44:10 10° NNE
Cosmos 1908 3.2 23:36:58 10° NNW 23:40:46 71° W 23:42:29 31° S
STARLINK-1236 3.6 23:37:03 10° W 23:41:13 87° N 23:45:23 10° E
Cosmos 1025 Rocket 4.3 23:39:50 14° SW 23:43:07 35° WNW 23:47:06 10° N
Thor Agena Rocket 4.4 23:38:03 10° N 23:43:08 47° WNW 23:47:47 12° SW
Aureole 3 3.5 23:40:25 10° NNW 23:43:32 40° W 23:44:31 29° SW
STARLINK-1198 3.8 23:39:47 10° WNW 23:43:49 51° SSW 23:46:07 23° SE
Cosmos 1953 3.6 23:40:51 10° NNW 23:44:21 30° W 23:46:22 19° SW
STARLINK-1199 3.8 23:44:48 10° WNW 23:48:48 48° SSW 23:50:55 25° SE
Landsat 4 4.1 23:45:52 10° NNE 23:49:30 49° E 23:51:00 30° SSE
SL-4 R/B 2.6 23:50:08 19° W 23:50:08 19° W 23:51:41 10° NW
STARLINK-1269 3.5 23:47:02 10° W 23:51:12 90° SSW 23:55:22 10° ESE
Cosmos 1656 Rocket 4.1 23:46:09 10° SW 23:51:41 60° NW 23:57:12 10° NNE
STARLINK-1210 3.9 23:49:46 10° WNW 23:53:45 46° SSW 23:55:41 26° SSE
KORONAS-FOTON 3.8 23:52:25 30° SSW 23:54:15 79° WNW 23:58:08 10° N
